SCP
1 1 1 1 1 1 1 1 1 1 1 1 1 0 0 0 0 0 0 0 0 0 0 0 0 0 0 0 0 0 0 1 0 0 0 0 0 0 -0 -0 -0 -0 -0
1 1 1 1 1 1 1 1 1 1 1 1 1 0 0 0 0 0 0 0 0 0 0 0 0 0 0 0 0 0 0 0 0 0 0 0 0 0 0 -0 -0 -0 -0
1 1 0 1 1 1 1 1 1 1 1 1 1 1 0 0 0 0 0 0 0 0 0 0 0 0 0 0 0 0 0 0 0 0 0 0 0 0 0 -0 -0 -0 -0
1 1 0 0 1 1 1 0 0 1 1 1 1 1 1 1 0 0 0 0 0 0 0 0 0 0 0 0 0 0 0 0 0 0 0 0 0 0 0 0 0 0 -0
0 0 0 1 0 0 1 0 0 1 1 1 1 1 1 1 0 0 0 0 0 0 0 0 0 0 0 0 0 0 0 0 0 0 0 0 0 0 0 0 0 0 -0
0 0 0 0 1 1 0 0 1 1 1 1 1 1 0 0 0 0 0 0 0 0 0 0 0 0 0 0 0 0 0 0 0 0 0 0 0 0 0 0 0 -0 -0
0 0 1 0 0 0 0 0 1 1 1 0 0 0 0 0 0 0 0 0 0 0 0 0 0 0 0 0 0 0 0 0 0 0 0 0 0 0 0 0 -0 -0 -0
0 1 1 0 0 0 0 1 1 1 1 0 0 0 0 0 0 0 0 0 0 0 0 0 0 0 0 0 0 0 0 0 0 0 0 0 0 0 0 0 -0 -0 -0
1 1 1 0 0 0 1 1 1 0 0 0 0 0 0 0 0 0 0 0 0 0 0 0 0 0 0 0 0 0 0 0 0 0 0 0 0 0 -0 -0 -0 0 -0
1 1 0 1 1 1 1 1 0 0 0 0 0 0 0 0 0 0 0 0 0 0 0 0 0 0 0 0 0 0 0 0 0 0 0 0 0 0 -0 -0 -0 -0 -0
1 1 1 1 1 0 1 0 0 0 0 0 0 0 0 0 0 0 0 0 0 0 0 0 0 0 0 0 0 0 0 0 0 0 0 0 0 -0 0 0 0 0 -0
1 0 0 0 0 0 0 0 0 0 0 0 0 0 0 0 0 0 0 0 0 0 0 0 0 0 0 0 0 0 0 0 0 0 0 0 -0 0 0 0 -0 -0 -0
1 0 0 0 0 0 0 0 0 0 0 0 0 0 0 0 0 0 0 0 0 0 0 0 0 0 0 0 0 0 0 0 0 0 0 0 0 -0 0 0 -0 -0 -0
0 0 0 0 0 0 0 0 0 0 0 0 0 0 0 -0 -0 -0 0 0 0 0 0 0 0 0 0 0 0 0 0 0 0 0 0 0 -0 0 0 0 0 -0 -0
0 0 0 0 0 0 0 0 0 0 0 0 0 -0 -0 0 -0 -0 -0 0 0 0 0 0 0 0 0 0 0 0 0 0 0 0 0 0 -0 0 -0 0 0 -0 -0
0 0 0 0 0 0 0 0 0 0 0 0 0 -0 -0 -0 0 0 -0 0 0 0 0 0 0 0 0 0 0 0 0 0 0 0 0 0 0 0 -0 0 0 0 0
0 0 0 0 0 0 0 0 0 0 0 0 0 -0 -0 -0 -0 0 0 0 0 0 0 0 0 0 0 0 0 0 0 0 0 0 -0 -0 -0 0 0 -0 0 -0 -0
0 0 0 0 0 0 0 0 0 0 0 0 0 0 -0 -0 0 0 -0 0 0 0 0 0 0 0 0 0 0 0 0 0 0 0 0 0 0 0 -0 0 0 -0 -0
0 0 0 0 0 0 0 0 0 0 0 0 0 -0 -0 0 -0 0 0 0 0 0 0 0 0 0 0 0 0 0 0 0 0 -0 0 0 0 0 0 0 0 -0 -0
-0 -0 0 0 0 -0 0 0 0 0 0 0 0 -0 -0 0 0 -0 0 0 0 0 0 0 0 0 0 0 0 0 0 0 0 0 0 0 0 0 0 -0 0 -0 -0
0 0 0 0 0 -0 0 0 0 0 0 0 -0 -0 -0 -0 0 0 0 0 0 0 0 0 0 0 0 0 0 0 0 0 0 0 0 0 0 0 0 0 -0 0 -0
0 0 0 0 0 0 0 -0 -0 0 -0 0 0 0 -0 -0 0 -0 -0 0 0 0 0 0 0 0 0 0 0 0 0 0 0 0 0 0 0 0 0 0 0 0 -0
0 0 0 0 0 0 -0 -0 0 0 0 0 -0 0 0 0 -0 0 0 0 0 0 0 0 0 0 0 0 0 0 0 0 0 0 0 0 0 0 0 0 0 0 -0
0 0 0 0 0 0 0 -0 -0 -0 -0 0 -0 -0 -0 0 0 -0 0 0 0 0 0 0 0 0 0 0 0 0 0 0 0 0 0 0 0 0 0 0 0 0 -0
0 0 0 0 0 0 0 -0 -0 -0 -0 0 -0 -0 0 0 -0 0 0 -0 0 0 0 0 0 0 0 0 0 0 0 0 0 0 0 0 0 0 0 0 0 -0 -0
0 0 0 0 0 0 0 -0 -0 -0 -0 0 0 0 -0 0 0 0 0 0 0 0 0 0 0 0 0 0 0 0 0 0 0 0 0 0 0 0 0 0 -0 0 -0
Wind_Speed_500mb
91 82 76 69 61 51 51 43 44 40 32 31 29 23 21 21 20 20 20 19 17 20 22 33 35 35 34 34 34 28 28 32 32 35 34 40 39 27 24 28 26 31 34
93 89 80 75 65 57 52 50 46 37 38 36 34 27 24 24 26 27 25 27 24 25 21 20 29 33 36 34 35 29 28 32 34 35 36 34 34 28 27 28 26 28 36
88 84 76 75 72 64 53 55 47 42 43 41 36 31 31 31 31 32 32 30 27 29 26 20 24 31 35 40 36 31 27 31 37 35 36 39 36 26 30 27 22 24 26
74 67 61 66 68 67 58 55 51 46 44 41 36 33 36 36 35 36 35 33 30 30 27 26 28 30 36 40 37 31 28 30 41 40 41 40 38 28 27 22 18 19 22
56 44 43 46 52 61 56 53 48 42 41 39 34 38 40 42 40 39 35 35 33 28 29 28 26 26 36 37 41 36 31 30 42 43 39 42 37 27 23 20 17 19 36
43 37 36 33 40 49 50 45 38 35 34 35 40 42 45 42 40 40 36 30 32 27 29 30 26 21 26 32 36 37 34 32 43 46 41 36 30 27 25 22 20 23 44
32 29 30 28 25 33 36 34 27 26 31 34 37 41 40 38 35 33 32 26 26 27 30 29 25 24 21 23 25 31 34 34 43 42 44 38 32 29 29 21 24 35 41
27 28 27 19 17 27 36 33 26 28 32 33 33 25 17 15 25 31 32 28 30 26 25 29 30 29 23 16 18 24 29 33 40 42 41 37 33 32 32 28 37 35 44
28 28 23 20 22 26 28 27 27 30 30 27 26 17 7 10 5 12 26 29 31 29 27 31 36 37 26 19 17 19 28 32 37 38 40 39 34 32 33 39 30 32 29
32 30 25 25 25 26 25 26 28 29 27 29 26 26 27 15 8 8 11 26 28 25 24 29 37 41 32 28 20 18 22 32 33 33 41 40 36 34 24 33 35 30 33
32 30 30 28 26 23 25 26 27 28 25 23 20 23 29 23 13 3 8 17 29 23 24 25 27 32 31 32 25 20 22 30 32 29 44 40 33 42 45 35 36 35 36
35 41 31 27 23 23 26 26 27 22 19 19 22 21 20 21 21 13 8 13 27 25 23 22 26 28 27 28 25 19 23 29 32 32 44 40 39 42 43 44 40 36 33
34 37 31 26 28 27 27 25 19 20 18 21 21 22 23 20 19 15 14 12 23 30 20 28 28 25 26 27 27 25 24 29 33 34 40 48 53 50 53 46 42 41 39
27 24 25 27 29 28 25 19 19 19 19 19 20 22 22 24 26 19 18 16 25 25 19 20 27 27 28 24 27 26 28 34 35 35 36 47 68 55 47 46 45 41 33
24 23 23 26 26 23 20 17 17 18 16 17 17 16 17 18 21 25 23 18 27 24 15 16 15 22 26 24 23 26 29 34 35 34 37 65 71 48 49 47 45 37 31
20 19 23 25 23 20 18 17 17 16 16 16 16 15 16 17 20 25 28 25 17 23 23 20 16 19 23 25 26 30 32 36 38 38 48 68 42 48 54 56 52 43 34
17 21 22 22 21 20 18 17 15 15 17 18 20 16 15 18 22 22 26 26 23 20 21 25 20 19 20 25 31 32 33 39 41 37 52 47 51 55 58 50 43 46 37
22 22 21 20 19 17 17 14 14 16 16 16 20 21 15 13 21 23 24 26 31 33 30 39 29 28 27 33 34 36 40 41 44 47 54 61 61 59 47 46 47 38 31
21 21 20 20 17 14 10 9 13 13 15 15 22 24 23 18 22 25 23 18 31 33 30 43 40 40 36 35 34 42 48 50 49 66 76 64 52 50 48 48 44 33 30
22 23 21 17 11 7 8 9 9 10 11 14 16 16 21 23 26 27 25 32 36 38 34 46 51 47 43 42 43 53 66 65 77 64 50 54 53 50 45 44 38 32 17
26 21 16 11 5 6 8 8 7 8 10 13 15 19 17 26 29 32 34 38 41 37 45 56 56 56 54 58 53 61 68 77 73 64 61 63 50 49 42 41 38 20 21
22 17 13 3 7 3 4 7 7 7 11 18 8 19 16 22 29 32 33 35 40 38 55 56 61 57 60 54 59 58 62 71 64 56 71 59 52 50 42 41 24 25 21
19 16 9 5 3 2 3 8 6 5 5 9 9 18 15 19 29 37 42 38 35 25 32 53 62 54 54 55 67 67 71 69 75 70 60 58 55 44 38 31 30 25 19
18 17 5 3 2 7 9 9 7 4 8 12 12 20 24 26 30 41 44 44 38 35 32 45 47 41 41 55 52 69 75 73 68 63 58 40 51 42 36 30 27 22 19
20 13 5 6 8 9 10 9 7 9 12 12 13 20 27 34 35 35 46 49 44 40 34 43 41 44 46 58 66 76 76 73 70 55 52 41 48 40 34 29 25 22 20
18 12 6 12 11 12 12 10 9 7 10 12 17 20 22 26 40 36 46 51 51 47 41 40 44 52 42 49 66 63 65 60 56 33 49 32 43 35 25 28 26 25 24
Wind_Direction_500mb
251 246 244 241 240 245 248 249 254 249 252 257 256 258 270 279 263 261 256 256 262 260 243 235 235 233 233 234 226 228 227 220 210 215 208 208 209 223 206 207 204 209 216
254 254 249 246 242 246 252 249 253 256 256 256 252 252 267 278 263 260 262 257 252 261 251 237 233 232 232 231 222 228 229 220 212 207 208 211 214 217 218 213 214 222 231
257 259 256 249 243 248 249 250 252 255 254 256 250 251 268 274 268 262 266 260 255 251 246 247 242 233 227 225 222 229 228 222 212 210 215 214 209 225 216 218 222 229 237
262 263 262 252 243 244 246 245 253 251 251 257 254 254 267 271 273 265 263 259 253 245 240 248 241 237 225 221 222 230 235 222 210 205 208 212 211 222 213 214 218 219 228
263 263 257 249 238 240 237 240 246 245 254 259 255 261 268 272 268 266 261 256 244 243 234 237 237 234 220 222 223 233 232 224 207 204 207 210 202 209 207 200 212 210 184
259 254 247 230 226 229 232 231 232 244 254 253 252 261 267 266 265 260 254 251 237 235 230 228 227 214 209 218 225 232 234 219 204 208 207 197 199 210 206 202 209 198 195
240 234 221 209 204 218 213 210 225 240 251 256 262 264 270 271 264 247 246 241 224 225 231 229 221 213 209 211 227 228 220 212 201 205 204 200 204 207 192 201 196 182 187
219 202 202 192 193 193 197 208 231 248 254 255 256 260 268 263 254 242 239 227 214 223 229 221 213 206 203 214 222 207 205 204 200 204 202 197 201 201 191 199 185 198 194
191 191 187 184 193 199 204 219 240 251 262 264 255 232 225 240 195 229 225 221 218 222 230 218 209 201 203 216 212 204 203 203 200 202 198 194 202 201 203 194 193 204 177
182 183 179 189 194 199 212 231 246 259 261 255 237 227 229 234 211 172 198 208 210 214 221 216 206 205 218 216 217 215 208 204 204 201 199 196 202 196 176 152 174 182 157
178 187 185 188 197 211 226 247 261 267 255 231 222 226 221 208 194 161 149 187 188 221 211 204 200 207 216 205 208 213 207 201 200 200 197 192 212 182 165 165 165 161 153
182 186 191 199 208 229 239 256 262 248 229 224 216 219 213 214 224 222 186 174 188 198 202 199 200 208 205 205 209 209 201 197 196 197 198 196 198 184 173 173 162 160 159
182 188 202 215 224 235 251 258 240 228 220 223 222 225 223 219 223 219 196 174 168 178 180 184 193 198 198 203 211 209 208 194 193 190 186 180 188 183 179 165 160 163 169
178 189 208 219 229 243 248 228 224 220 224 222 225 231 229 228 227 217 202 191 156 168 171 181 192 200 205 217 212 211 204 195 189 190 188 185 180 175 166 162 166 170 167
185 197 212 226 235 228 213 216 214 209 210 211 205 216 221 222 220 210 202 198 189 165 166 188 190 200 204 200 195 189 185 185 183 185 185 186 169 171 175 169 163 162 158
195 213 222 220 204 199 198 190 184 185 196 206 220 223 229 227 222 208 206 203 198 188 179 182 196 184 187 183 187 183 179 175 177 178 175 174 172 175 167 166 164 150 149
201 203 190 182 185 184 186 190 197 209 216 224 231 232 228 229 222 208 201 212 202 183 184 191 175 163 170 166 155 167 167 160 166 174 180 172 176 170 171 173 172 161 159
174 171 173 174 179 184 193 200 218 229 227 224 219 220 210 218 210 200 191 209 204 192 173 167 168 150 145 151 158 155 156 156 156 174 183 176 177 177 164 163 159 151 158
164 161 160 157 157 172 189 217 225 222 221 232 228 222 215 217 202 195 192 202 176 175 170 167 156 146 141 154 152 159 158 155 171 176 174 171 165 156 162 160 144 156 159
160 153 152 152 154 184 215 218 210 223 224 239 231 202 203 208 198 192 188 180 164 161 168 167 151 148 142 148 155 161 154 153 136 137 140 145 152 153 160 143 152 161 182
153 153 151 151 198 260 227 205 215 224 234 237 222 210 215 211 205 200 193 175 165 171 165 160 156 151 151 153 158 152 146 147 148 152 153 154 151 144 148 151 165 174 171
166 167 155 177 291 226 194 178 193 229 247 246 226 190 206 207 200 193 190 187 186 178 167 167 166 163 165 170 164 163 161 154 143 156 153 147 154 156 160 165 177 177 185
170 170 176 287 259 229 205 184 182 229 236 175 181 184 175 157 173 181 180 184 191 205 201 178 173 174 171 171 172 165 163 159 155 154 160 157 164 170 172 177 179 188 193
174 174 184 250 142 117 124 136 152 171 147 146 148 168 162 154 147 150 159 169 178 182 184 175 185 178 163 169 177 172 161 159 157 158 166 157 170 181 179 181 189 196 197
175 172 175 154 128 125 129 136 132 140 152 162 154 161 176 169 166 162 157 159 160 168 177 180 175 167 158 166 165 165 161 157 157 168 182 176 175 177 185 192 200 204 208
179 177 170 152 129 122 122 128 119 107 130 133 140 145 174 171 171 168 167 162 162 167 168 173 173 167 158 167 166 169 165 165 161 162 179 173 178 178 194 205 212 215 222
Wind_Speed_850mb
91 82 76 69 61 51 51 43 44 40 32 31 29 23 21 21 20 20 20 19 17 20 22 33 35 35 34 34 34 28 28 32 32 35 34 40 39 27 24 28 26 31 34
93 89 80 75 65 57 52 50 46 37 38 36 34 27 24 24 26 27 25 27 24 25 21 20 29 33 36 34 35 29 28 32 34 35 36 34 34 28 27 28 26 28 36
88 84 76 75 72 64 53 55 47 42 43 41 36 31 31 31 31 32 32 30 27 29 26 20 24 31 35 40 36 31 27 31 37 35 36 39 36 26 30 27 22 24 26
74 67 61 66 68 67 58 55 51 46 44 41 36 33 36 36 35 36 35 33 30 30 27 26 28 30 36 40 37 31 28 30 41 40 41 40 38 28 27 22 18 19 22
56 44 43 46 52 61 56 53 48 42 41 39 34 38 40 42 40 39 35 35 33 28 29 28 26 26 36 37 41 36 31 30 42 43 39 42 37 27 23 20 17 19 36
43 37 36 33 40 49 50 45 38 35 34 35 40 42 45 42 40 40 36 30 32 27 29 30 26 21 26 32 36 37 34 32 43 46 41 36 30 27 25 22 20 23 44
32 29 30 28 25 33 36 34 27 26 31 34 37 41 40 38 35 33 32 26 26 27 30 29 25 24 21 23 25 31 34 34 43 42 44 38 32 29 29 21 24 35 41
27 28 27 19 17 27 36 33 26 28 32 33 33 25 17 15 25 31 32 28 30 26 25 29 30 29 23 16 18 24 29 33 40 42 41 37 33 32 32 28 37 35 44
28 28 23 20 22 26 28 27 27 30 30 27 26 17 7 10 5 12 26 29 31 29 27 31 36 37 26 19 17 19 28 32 37 38 40 39 34 32 33 39 30 32 29
32 30 25 25 25 26 25 26 28 29 27 29 26 26 27 15 8 8 11 26 28 25 24 29 37 41 32 28 20 18 22 32 33 33 41 40 36 34 24 33 35 30 33
32 30 30 28 26 23 25 26 27 28 25 23 20 23 29 23 13 3 8 17 29 23 24 25 27 32 31 32 25 20 22 30 32 29 44 40 33 42 45 35 36 35 36
35 41 31 27 23 23 26 26 27 22 19 19 22 21 20 21 21 13 8 13 27 25 23 22 26 28 27 28 25 19 23 29 32 32 44 40 39 42 43 44 40 36 33
34 37 31 26 28 27 27 25 19 20 18 21 21 22 23 20 19 15 14 12 23 30 20 28 28 25 26 27 27 25 24 29 33 34 40 48 53 50 53 46 42 41 39
27 24 25 27 29 28 25 19 19 19 19 19 20 22 22 24 26 19 18 16 25 25 19 20 27 27 28 24 27 26 28 34 35 35 36 47 68 55 47 46 45 41 33
24 23 23 26 26 23 20 17 17 18 16 17 17 16 17 18 21 25 23 18 27 24 15 16 15 22 26 24 23 26 29 34 35 34 37 65 71 48 49 47 45 37 31
20 19 23 25 23 20 18 17 17 16 16 16 16 15 16 17 20 25 28 25 17 23 23 20 16 19 23 25 26 30 32 36 38 38 48 68 42 48 54 56 52 43 34
17 21 22 22 21 20 18 17 15 15 17 18 20 16 15 18 22 22 26 26 23 20 21 25 20 19 20 25 31 32 33 39 41 37 52 47 51 55 58 50 43 46 37
22 22 21 20 19 17 17 14 14 16 16 16 20 21 15 13 21 23 24 26 31 33 30 39 29 28 27 33 34 36 40 41 44 47 54 61 61 59 47 46 47 38 31
21 21 20 20 17 14 10 9 13 13 15 15 22 24 23 18 22 25 23 18 31 33 30 43 40 40 36 35 34 42 48 50 49 66 76 64 52 50 48 48 44 33 30
22 23 21 17 11 7 8 9 9 10 11 14 16 16 21 23 26 27 25 32 36 38 34 46 51 47 43 42 43 53 66 65 77 64 50 54 53 50 45 44 38 32 17
26 21 16 11 5 6 8 8 7 8 10 13 15 19 17 26 29 32 34 38 41 37 45 56 56 56 54 58 53 61 68 77 73 64 61 63 50 49 42 41 38 20 21
22 17 13 3 7 3 4 7 7 7 11 18 8 19 16 22 29 32 33 35 40 38 55 56 61 57 60 54 59 58 62 71 64 56 71 59 52 50 42 41 24 25 21
19 16 9 5 3 2 3 8 6 5 5 9 9 18 15 19 29 37 42 38 35 25 32 53 62 54 54 55 67 67 71 69 75 70 60 58 55 44 38 31 30 25 19
18 17 5 3 2 7 9 9 7 4 8 12 12 20 24 26 30 41 44 44 38 35 32 45 47 41 41 55 52 69 75 73 68 63 58 40 51 42 36 30 27 22 19
20 13 5 6 8 9 10 9 7 9 12 12 13 20 27 34 35 35 46 49 44 40 34 43 41 44 46 58 66 76 76 73 70 55 52 41 48 40 34 29 25 22 20
18 12 6 12 11 12 12 10 9 7 10 12 17 20 22 26 40 36 46 51 51 47 41 40 44 52 42 49 66 63 65 60 56 33 49 32 43 35 25 28 26 25 24
Wind_Direction_850mb
251 246 244 241 240 245 248 249 254 249 252 257 256 258 270 279 263 261 256 256 262 260 243 235 235 233 233 234 226 228 227 220 210 215 208 208 209 223 206 207 204 209 216
254 254 249 246 242 246 252 249 253 256 256 256 252 252 267 278 263 260 262 257 252 261 251 237 233 232 232 231 222 228 229 220 212 207 208 211 214 217 218 213 214 222 231
257 259 256 249 243 248 249 250 252 255 254 256 250 251 268 274 268 262 266 260 255 251 246 247 242 233 227 225 222 229 228 222 212 210 215 214 209 225 216 218 222 229 237
262 263 262 252 243 244 246 245 253 251 251 257 254 254 267 271 273 265 263 259 253 245 240 248 241 237 225 221 222 230 235 222 210 205 208 212 211 222 213 214 218 219 228
263 263 257 249 238 240 237 240 246 245 254 259 255 261 268 272 268 266 261 256 244 243 234 237 237 234 220 222 223 233 232 224 207 204 207 210 202 209 207 200 212 210 184
259 254 247 230 226 229 232 231 232 244 254 253 252 261 267 266 265 260 254 251 237 235 230 228 227 214 209 218 225 232 234 219 204 208 207 197 199 210 206 202 209 198 195
240 234 221 209 204 218 213 210 225 240 251 256 262 264 270 271 264 247 246 241 224 225 231 229 221 213 209 211 227 228 220 212 201 205 204 200 204 207 192 201 196 182 187
219 202 202 192 193 193 197 208 231 248 254 255 256 260 268 263 254 242 239 227 214 223 229 221 213 206 203 214 222 207 205 204 200 204 202 197 201 201 191 199 185 198 194
191 191 187 184 193 199 204 219 240 251 262 264 255 232 225 240 195 229 225 221 218 222 230 218 209 201 203 216 212 204 203 203 200 202 198 194 202 201 203 194 193 204 177
182 183 179 189 194 199 212 231 246 259 261 255 237 227 229 234 211 172 198 208 210 214 221 216 206 205 218 216 217 215 208 204 204 201 199 196 202 196 176 152 174 182 157
178 187 185 188 197 211 226 247 261 267 255 231 222 226 221 208 194 161 149 187 188 221 211 204 200 207 216 205 208 213 207 201 200 200 197 192 212 182 165 165 165 161 153
182 186 191 199 208 229 239 256 262 248 229 224 216 219 213 214 224 222 186 174 188 198 202 199 200 208 205 205 209 209 201 197 196 197 198 196 198 184 173 173 162 160 159
182 188 202 215 224 235 251 258 240 228 220 223 222 225 223 219 223 219 196 174 168 178 180 184 193 198 198 203 211 209 208 194 193 190 186 180 188 183 179 165 160 163 169
178 189 208 219 229 243 248 228 224 220 224 222 225 231 229 228 227 217 202 191 156 168 171 181 192 200 205 217 212 211 204 195 189 190 188 185 180 175 166 162 166 170 167
185 197 212 226 235 228 213 216 214 209 210 211 205 216 221 222 220 210 202 198 189 165 166 188 190 200 204 200 195 189 185 185 183 185 185 186 169 171 175 169 163 162 158
195 213 222 220 204 199 198 190 184 185 196 206 220 223 229 227 222 208 206 203 198 188 179 182 196 184 187 183 187 183 179 175 177 178 175 174 172 175 167 166 164 150 149
201 203 190 182 185 184 186 190 197 209 216 224 231 232 228 229 222 208 201 212 202 183 184 191 175 163 170 166 155 167 167 160 166 174 180 172 176 170 171 173 172 161 159
174 171 173 174 179 184 193 200 218 229 227 224 219 220 210 218 210 200 191 209 204 192 173 167 168 150 145 151 158 155 156 156 156 174 183 176 177 177 164 163 159 151 158
164 161 160 157 157 172 189 217 225 222 221 232 228 222 215 217 202 195 192 202 176 175 170 167 156 146 141 154 152 159 158 155 171 176 174 171 165 156 162 160 144 156 159
160 153 152 152 154 184 215 218 210 223 224 239 231 202 203 208 198 192 188 180 164 161 168 167 151 148 142 148 155 161 154 153 136 137 140 145 152 153 160 143 152 161 182
153 153 151 151 198 260 227 205 215 224 234 237 222 210 215 211 205 200 193 175 165 171 165 160 156 151 151 153 158 152 146 147 148 152 153 154 151 144 148 151 165 174 171
166 167 155 177 291 226 194 178 193 229 247 246 226 190 206 207 200 193 190 187 186 178 167 167 166 163 165 170 164 163 161 154 143 156 153 147 154 156 160 165 177 177 185
170 170 176 287 259 229 205 184 182 229 236 175 181 184 175 157 173 181 180 184 191 205 201 178 173 174 171 171 172 165 163 159 155 154 160 157 164 170 172 177 179 188 193
174 174 184 250 142 117 124 136 152 171 147 146 148 168 162 154 147 150 159 169 178 182 184 175 185 178 163 169 177 172 161 159 157 158 166 157 170 181 179 181 189 196 197
175 172 175 154 128 125 129 136 132 140 152 162 154 161 176 169 166 162 157 159 160 168 177 180 175 167 158 166 165 165 161 157 157 168 182 176 175 177 185 192 200 204 208
179 177 170 152 129 122 122 128 119 107 130 133 140 145 174 171 171 168 167 162 162 167 168 173 173 167 158 167 166 169 165 165 161 162 179 173 178 178 194 205 212 215 222